Notices

What's New in latest Release from April 7th, 2021:

- Updated Glossary, including Speed of Maximum Gust, and Total Hourly Precipitation

- Updated national and regional climate services offices contacts and prices information

- Addition of station inventory lists for 1981-2010, 1971-2000, and 1961-1990 Normals.

If you haven't already, please take our survey and provide feedback about our website: https://eccc.sondage-survey.ca/f/LanguageSelection.aspx?s=442ca660-fcf1-47c0-95a9-59707d6fd709

Hourly Data Report for June 26, 2004

SHERBROOKE A
QUEBEC

45°26'00.000" N
71°41'00.000" W
241.40 m
7028124
71610
YSC

Download Data

Hourly Data (June 2004)
Hourly Data Report for June 26, 2004
TIME
LST
Temp Definition
°C
Dew Point Definition
°C
Rel Hum Definition
%
Precip. Amount Definition
mm

Wind Dir Definition
10's deg

Wind Spd Definition
km/h
Visibility Definition
km
Stn Press Definition
kPa
Hmdx Definition


Wind Chill Definition


Weather Definition


00:00 4.9 3.7 92     0 15.0 98.70      
01:00 5.2 4.2 93   11 4 0.5 98.66      
02:00 4.6 3.7 94   9 4 3.1 98.63      
03:00 5.5 4.5 93   8 6 15.0 98.57      
04:00 4.6 3.5 93   11 6 15.0 98.55      
05:00 5.7 4.6 93   9 4 15.0 98.53      
06:00 7.5 6.3 92   4 4 15.0 98.50      
07:00 10.9 8.7 86     0 24.1 98.47     Mainly Clear
08:00 13.3 9.0 75   27 7 24.1 98.43     Mainly Clear
09:00 15.3 9.8 70   30 9 24.1 98.36     Mainly Clear
10:00 16.7 8.0 56   29 11 24.1 98.29     Mainly Clear
11:00 17.3 6.9 50   26 11 24.1 98.24     Mainly Clear
12:00 18.9 7.0 46   27 13 24.1 98.17     Mainly Clear
13:00 19.4 6.8 44   25 9 24.1 98.12     Mainly Clear
14:00 19.3 7.9 48   31 7 24.1 98.07     Mainly Clear
15:00 20.2 7.0 42   29 22 24.1 98.04     Mainly Clear
16:00 18.6 6.5 45   27 20 24.1 98.03     Mainly Clear
17:00 19.5 6.0 41   27 19 15.0 98.00      
18:00 17.7 8.5 55   27 24 15.0 98.06      
19:00 13.8 8.6 71   24 11 15.0 98.15      
20:00 12.2 7.8 74   27 17 15.0 98.19      
21:00 10.7 7.3 79   24 9 15.0 98.25      
22:00 9.4 7.0 85   21 4 15.0 98.26      
23:00 9.0 6.9 87   22 4 15.0 98.28      

Notes on Data Quality.

Legend

  • E = Estimated
  • M = Missing
  • NA = Not Available*
  • [empty] = Indicates an unobserved value
Date modified: